| time (UTC) | temp C | wind direction | speed KPH | gust KPH | rain 1hr cm | rain 24hr cm | rain mn cm | humidity % | barometer mb |
| 20260506051232 | 8 | 138 | 0.0 | 0.0 | 0.00 | 0.00 | 0.00 | 88 | 1009.0 |
| 20260506050231 | 7 | 138 | 1.6 | 0.0 | 0.00 | 0.00 | 0.00 | 88 | 1008.7 |
| 20260506044730 | 7 | 138 | 0.0 | 0.0 | 0.00 | 0.00 | 0.00 | 87 | 1008.7 |
| 20260506044230 | 7 | 138 | 0.0 | 0.0 | 0.00 | 0.00 | 0.00 | 87 | 1008.8 |
| 20260506043730 | 7 | 138 | 1.6 | 0.0 | 0.00 | 0.00 | 0.00 | 87 | 1008.8 |
| 20260506043229 | 7 | 138 | 0.0 | 0.0 | 0.00 | 0.00 | 0.00 | 87 | 1008.7 |
| 20260506042729 | 7 | 138 | 0.0 | 0.0 | 0.00 | 0.00 | 0.00 | 87 | 1008.7 |
| 20260506042229 | 7 | 138 | 0.0 | 0.0 | 0.00 | 0.00 | 0.00 | 87 | 1008.4 |
| 20260506041728 | 7 | 138 | 0.0 | 0.0 | 0.00 | 0.00 | 0.00 | 87 | 1008.4 |
| 20260506041228 | 7 | 138 | 0.0 | 0.0 | 0.00 | 0.00 | 0.00 | 87 | 1008.5 |
| 20260506040728 | 7 | 138 | 0.0 | 0.0 | 0.00 | 0.00 | 0.00 | 87 | 1008.3 |
| 20260506040228 | 7 | 138 | 0.0 | 0.0 | 0.00 | 0.00 | 0.00 | 86 | 1008.3 |
| 20260506035727 | 7 | 138 | 0.0 | 0.0 | 0.00 | 0.00 | 0.00 | 86 | 1008.2 |
| 20260506034727 | 7 | 138 | 1.6 | 0.0 | 0.00 | 0.00 | 0.00 | 86 | 1008.3 |
| 20260506034226 | 7 | 138 | 0.0 | 0.0 | 0.00 | 0.00 | 0.00 | 86 | 1008.3 |
| 20260506033726 | 7 | 138 | 0.0 | 0.0 | 0.00 | 0.00 | 0.00 | 86 | 1008.3 |
| 20260506033226 | 7 | 133 | 3.2 | 0.0 | 0.00 | 0.00 | 0.00 | 86 | 1008.4 |
| 20260506032726 | 7 | 128 | 1.6 | 0.0 | 0.00 | 0.00 | 0.00 | 86 | 1008.3 |
| 20260506032225 | 7 | 138 | 1.6 | 0.0 | 0.00 | 0.00 | 0.00 | 86 | 1008.3 |
| 20260506031725 | 7 | 138 | 1.6 | 0.0 | 0.00 | 0.00 | 0.00 | 86 | 1008.2 |
| 20260506031225 | 7 | 136 | 3.2 | 0.0 | 0.00 | 0.00 | 0.00 | 86 | 1008.1 |
| 20260506030724 | 7 | 132 | 0.0 | 0.0 | 0.00 | 0.00 | 0.00 | 86 | 1008.1 |
| 20260506030224 | 7 | 132 | 1.6 | 0.0 | 0.00 | 0.00 | 0.00 | 86 | 1008.0 |
| 20260506025724 | 7 | 136 | 3.2 | 0.0 | 0.00 | 0.00 | 0.00 | 86 | 1008.1 |
| 20260506025224 | 7 | 136 | 3.2 | 0.0 | 0.00 | 0.00 | 0.00 | 86 | 1008.2 |
| 20260506024723 | 7 | 130 | 1.6 | 0.0 | 0.00 | 0.00 | 0.00 | 85 | 1008.3 |
| 20260506024223 | 7 | 130 | 0.0 | 0.0 | 0.00 | 0.00 | 0.00 | 85 | 1008.2 |
| 20260506023723 | 7 | 130 | 1.6 | 0.0 | 0.00 | 0.00 | 0.00 | 85 | 1008.3 |
| 20260506023222 | 7 | 136 | 1.6 | 0.0 | 0.00 | 0.00 | 0.00 | 85 | 1008.4 |
| 20260506022722 | 7 | 111 | 1.6 | 0.0 | 0.00 | 0.00 | 0.00 | 85 | 1008.4 |
| 20260506022222 | 7 | 140 | 6.4 | 0.0 | 0.00 | 0.00 | 0.00 | 85 | 1008.5 |
| 20260506021722 | 7 | 125 | 4.8 | 0.0 | 0.00 | 0.00 | 0.00 | 85 | 1008.6 |
| 20260506021221 | 7 | 149 | 3.2 | 0.0 | 0.00 | 0.00 | 0.00 | 85 | 1008.8 |
| 20260506020721 | 7 | 123 | 3.2 | 0.0 | 0.00 | 0.00 | 0.00 | 85 | 1008.9 |
| 20260506020221 | 7 | 140 | 1.6 | 0.0 | 0.00 | 0.00 | 0.00 | 84 | 1008.7 |
| 20260506015720 | 7 | 149 | 1.6 | 0.0 | 0.00 | 0.00 | 0.00 | 84 | 1008.6 |
| 20260506014720 | 7 | 140 | 1.6 | 0.0 | 0.00 | 0.00 | 0.00 | 84 | 1008.3 |
| 20260506014220 | 7 | 138 | 1.6 | 0.0 | 0.00 | 0.00 | 0.00 | 84 | 1008.3 |
| 20260506013219 | 7 | 149 | 1.6 | 0.0 | 0.00 | 0.00 | 0.00 | 83 | 1008.1 |
| 20260506012719 | 7 | 144 | 0.0 | 0.0 | 0.00 | 0.00 | 0.00 | 82 | 1008.1 |
| 20260506012219 | 7 | 140 | 3.2 | 0.0 | 0.00 | 0.00 | 0.00 | 82 | 1007.9 |
| 20260506011218 | 7 | 134 | 3.2 | 0.0 | 0.00 | 0.00 | 0.00 | 81 | 1008.1 |
| 20260506010718 | 7 | 135 | 3.2 | 0.0 | 0.00 | 0.00 | 0.00 | 81 | 1008.0 |
| 20260506005717 | 8 | 148 | 6.4 | 0.0 | 0.00 | 0.00 | 0.00 | 79 | 1008.0 |
| 20260506005217 | 8 | 153 | 4.8 | 0.0 | 0.00 | 0.00 | 0.00 | 78 | 1007.9 |
| 20260506004716 | 8 | 184 | 1.6 | 0.0 | 0.00 | 0.00 | 0.00 | 77 | 1007.7 |
| 20260506003716 | 9 | 140 | 4.8 | 0.0 | 0.00 | 0.00 | 0.00 | 74 | 1007.7 |
| 20260506003216 | 10 | 152 | 1.6 | 0.0 | 0.00 | 0.00 | 0.00 | 73 | 1007.5 |
| 20260506002715 | 10 | 155 | 4.8 | 0.0 | 0.00 | 0.00 | 0.00 | 72 | 1007.5 |
| 20260506002215 | 10 | 159 | 3.2 | 0.0 | 0.00 | 0.00 | 0.00 | 71 | 1007.3 |
| 20260506001214 | 10 | 38 | 1.6 | 0.0 | 0.00 | 0.00 | 0.00 | 71 | 1007.1 |
| 20260506000214 | 10 | 34 | 3.2 | 0.0 | 0.00 | 0.00 | 0.00 | 70 | 1007.1 |
| 20260505235213 | 10 | 322 | 3.2 | 0.0 | 0.00 | 0.00 | 0.00 | 70 | 1006.9 |
| 20260505233212 | 10 | 360 | 1.6 | 0.0 | 0.00 | 0.00 | 0.00 | 72 | 1006.7 |
| 20260505232712 | 11 | 341 | 3.2 | 0.0 | 0.00 | 0.00 | 0.00 | 72 | 1006.5 |
| 20260505232212 | 11 | 297 | 4.8 | 0.0 | 0.00 | 0.00 | 0.00 | 72 | 1006.4 |
| 20260505230711 | 11 | 314 | 4.8 | 0.0 | 0.00 | 0.00 | 0.00 | 69 | 1006.6 |
| 20260505230211 | 11 | 313 | 3.2 | 0.0 | 0.00 | 0.00 | 0.00 | 68 | 1006.7 |
| 20260505225710 | 11 | 340 | 3.2 | 0.0 | 0.00 | 0.00 | 0.00 | 68 | 1006.8 |
| 20260505225210 | 11 | 294 | 3.2 | 0.0 | 0.00 | 0.00 | 0.00 | 68 | 1006.8 |
| 20260505224710 | 11 | 312 | 4.8 | 0.0 | 0.00 | 0.00 | 0.00 | 69 | 1006.8 |
| 20260505224209 | 11 | 304 | 4.8 | 0.0 | 0.00 | 0.00 | 0.00 | 69 | 1006.7 |
| 20260505223709 | 11 | 298 | 4.8 | 0.0 | 0.00 | 0.00 | 0.00 | 69 | 1006.8 |
| 20260505223209 | 11 | 296 | 3.2 | 0.0 | 0.00 | 0.00 | 0.00 | 70 | 1006.8 |
| 20260505222709 | 11 | 304 | 4.8 | 0.0 | 0.00 | 0.00 | 0.00 | 71 | 1006.9 |
| 20260505222208 | 11 | 292 | 3.2 | 0.0 | 0.00 | 0.00 | 0.00 | 73 | 1006.8 |
| 20260505221708 | 11 | 189 | 8.0 | 0.0 | 0.00 | 0.00 | 0.00 | 73 | 1006.7 |
| 20260505221208 | 11 | 306 | 3.2 | 0.0 | 0.00 | 0.00 | 0.00 | 74 | 1006.5 |
| 20260505220707 | 10 | 261 | 4.8 | 0.0 | 0.00 | 0.00 | 0.00 | 76 | 1006.6 |
| 20260505220207 | 10 | 299 | 6.4 | 0.0 | 0.00 | 0.00 | 0.00 | 77 | 1006.5 |
| 20260505215707 | 10 | 290 | 6.4 | 0.0 | 0.00 | 0.00 | 0.00 | 79 | 1006.4 |
| 20260505215207 | 10 | 284 | 6.4 | 0.0 | 0.00 | 0.00 | 0.00 | 80 | 1006.4 |
| 20260505214706 | 10 | 337 | 3.2 | 0.0 | 0.00 | 0.00 | 0.00 | 81 | 1006.3 |
| 20260505214206 | 10 | 294 | 6.4 | 0.0 | 0.00 | 0.00 | 0.00 | 81 | 1006.4 |
| 20260505213205 | 10 | 301 | 3.2 | 0.0 | 0.00 | 0.00 | 0.00 | 82 | 1006.4 |
| 20260505212705 | 10 | 299 | 3.2 | 0.0 | 0.00 | 0.00 | 0.00 | 82 | 1006.4 |
| 20260505212205 | 10 | 284 | 4.8 | 0.0 | 0.00 | 0.00 | 0.00 | 81 | 1006.2 |
| 20260505211705 | 10 | 328 | 1.6 | 0.0 | 0.00 | 0.00 | 0.00 | 81 | 1006.3 |
| 20260505211204 | 10 | 284 | 1.6 | 0.0 | 0.00 | 0.00 | 0.00 | 81 | 1006.2 |
| 20260505210704 | 10 | 281 | 3.2 | 0.0 | 0.00 | 0.00 | 0.00 | 81 | 1006.3 |
| 20260505210204 | 10 | 295 | 1.6 | 0.0 | 0.00 | 0.00 | 0.00 | 81 | 1006.3 |
| 20260505205203 | 10 | 5 | 3.2 | 0.0 | 0.00 | 0.00 | 0.00 | 80 | 1006.2 |
| 20260505204703 | 10 | 329 | 4.8 | 0.0 | 0.00 | 0.00 | 0.00 | 79 | 1006.3 |
| 20260505204203 | 10 | 341 | 4.8 | 0.0 | 0.00 | 0.00 | 0.00 | 79 | 1006.3 |
| 20260505202702 | 10 | 302 | 8.0 | 0.0 | 0.00 | 0.00 | 0.00 | 76 | 1005.9 |
| 20260505202202 | 10 | 336 | 6.4 | 0.0 | 0.00 | 0.00 | 0.00 | 75 | 1005.8 |
| 20260505201701 | 10 | 355 | 3.2 | 0.0 | 0.00 | 0.00 | 0.00 | 75 | 1005.8 |
| 20260505201201 | 11 | 350 | 3.2 | 0.0 | 0.00 | 0.00 | 0.00 | 74 | 1006.0 |
| 20260505200701 | 11 | 325 | 6.4 | 0.0 | 0.00 | 0.00 | 0.00 | 73 | 1005.9 |
| 20260505200200 | 11 | 332 | 3.2 | 0.0 | 0.00 | 0.00 | 0.00 | 70 | 1006.1 |
| 20260505195700 | 12 | 281 | 1.6 | 0.0 | 0.00 | 0.00 | 0.00 | 67 | 1005.9 |
| 20260505195200 | 12 | 346 | 6.4 | 0.0 | 0.00 | 0.00 | 0.00 | 63 | 1005.7 |
| 20260505194659 | 13 | 276 | 12.9 | 0.0 | 0.00 | 0.00 | 0.00 | 59 | 1005.4 |
| 20260505193659 | 15 | 339 | 3.2 | 0.0 | 0.00 | 0.00 | 0.00 | 56 | 1005.1 |
| 20260505193159 | 15 | 239 | 3.2 | 0.0 | 0.00 | 0.00 | 0.00 | 54 | 1005.0 |
| 20260505192158 | 15 | 278 | 9.7 | 0.0 | 0.00 | 0.00 | 0.00 | 52 | 1004.6 |
| 20260505191658 | 15 | 244 | 6.4 | 0.0 | 0.00 | 0.00 | 0.00 | 51 | 1004.5 |
| 20260505190657 | 16 | 337 | 4.8 | 0.0 | 0.00 | 0.00 | 0.00 | 54 | 1004.5 |
| 20260505190157 | 15 | 270 | 3.2 | 0.0 | 0.00 | 0.00 | 0.00 | 55 | 1004.3 |
| 20260505185657 | 15 | 275 | 4.8 | 0.0 | 0.00 | 0.00 | 0.00 | 55 | 1004.4 |
| 20260505185156 | 15 | 289 | 6.4 | 0.0 | 0.00 | 0.00 | 0.00 | 55 | 1004.3 |
| 20260505184656 | 15 | 263 | 9.7 | 0.0 | 0.00 | 0.00 | 0.00 | 55 | 1004.4 |
| 20260505184156 | 15 | 290 | 12.9 | 0.0 | 0.00 | 0.00 | 0.00 | 56 | 1004.3 |
| 20260505183656 | 16 | 313 | 9.7 | 0.0 | 0.00 | 0.00 | 0.00 | 55 | 1004.1 |
| 20260505183155 | 16 | 290 | 6.4 | 0.0 | 0.00 | 0.00 | 0.00 | 53 | 1004.1 |
| 20260505182155 | 16 | 198 | 12.9 | 0.0 | 0.00 | 0.00 | 0.00 | 52 | 1003.9 |
| 20260505180154 | 17 | 253 | 8.0 | 0.0 | 0.00 | 0.00 | 0.00 | 56 | 1003.6 |
| 20260505175653 | 17 | 246 | 12.9 | 0.0 | 0.00 | 0.00 | 0.00 | 56 | 1003.5 |
| 20260505174152 | 17 | 227 | 1.6 | 0.0 | 0.00 | 0.00 | 0.00 | 60 | 1003.2 |
| 20260505173152 | 16 | 282 | 9.7 | 0.0 | 0.00 | 0.00 | 0.00 | 63 | 1003.0 |
| 20260505172151 | 16 | 279 | 9.7 | 0.0 | 0.00 | 0.00 | 0.00 | 64 | 1002.8 |
| 20260505171151 | 16 | 291 | 6.4 | 0.0 | 0.00 | 0.00 | 0.00 | 65 | 1002.7 |
| 20260505170150 | 16 | 265 | 3.2 | 0.0 | 0.00 | 0.00 | 0.00 | 66 | 1002.7 |
| 20260505165650 | 16 | 276 | 6.4 | 0.0 | 0.00 | 0.00 | 0.00 | 66 | 1002.6 |
| 20260505165150 | 16 | 290 | 1.6 | 0.0 | 0.00 | 0.00 | 0.00 | 66 | 1002.5 |
| 20260505164149 | 16 | 280 | 3.2 | 0.0 | 0.00 | 0.00 | 0.00 | 67 | 1002.8 |
| 20260505163649 | 16 | 299 | 3.2 | 0.0 | 0.00 | 0.00 | 0.00 | 68 | 1002.9 |
| 20260505163148 | 15 | 259 | 4.8 | 0.0 | 0.00 | 0.00 | 0.00 | 68 | 1002.9 |
| 20260505162648 | 15 | 223 | 6.4 | 0.0 | 0.00 | 0.00 | 0.00 | 69 | 1002.9 |
| 20260505162148 | 15 | 304 | 6.4 | 0.0 | 0.00 | 0.00 | 0.00 | 69 | 1002.8 |
| 20260505161648 | 15 | 218 | 3.2 | 0.0 | 0.00 | 0.00 | 0.00 | 69 | 1002.8 |
| 20260505161147 | 15 | 248 | 12.9 | 0.0 | 0.00 | 0.00 | 0.00 | 70 | 1002.8 |
| 20260505160647 | 15 | 307 | 12.9 | 0.0 | 0.00 | 0.00 | 0.00 | 71 | 1002.7 |
| 20260505160147 | 15 | 257 | 8.0 | 0.0 | 0.00 | 0.00 | 0.00 | 70 | 1002.6 |
| 20260505153145 | 16 | 294 | 0.0 | 0.0 | 0.00 | 0.00 | 0.00 | 69 | 1002.4 |
| 20260505152645 | 16 | 272 | 6.4 | 0.0 | 0.00 | 0.00 | 0.00 | 69 | 1002.3 |
| 20260505152144 | 15 | 307 | 12.9 | 0.0 | 0.00 | 0.00 | 0.00 | 69 | 1002.1 |
| 20260505150644 | 15 | 266 | 4.8 | 0.0 | 0.00 | 0.00 | 0.00 | 67 | 1001.6 |
| 20260505150143 | 15 | 294 | 11.3 | 0.0 | 0.00 | 0.00 | 0.00 | 67 | 1001.5 |
| 20260505140640 | 17 | 190 | 8.0 | 0.0 | 0.00 | 0.00 | 0.00 | 71 | 1000.6 |
| 20260505140140 | 17 | 254 | 4.8 | 0.0 | 0.00 | 0.00 | 0.00 | 71 | 1000.5 |
| 20260505130136 | 16 | 201 | 3.2 | 0.0 | 0.00 | 0.00 | 0.00 | 72 | 999.5 |
| 20260505124636 | 16 | 138 | 6.4 | 0.0 | 0.00 | 0.00 | 0.00 | 72 | 999.4 |
| 20260505124135 | 16 | 185 | 4.8 | 0.0 | 0.00 | 0.00 | 0.00 | 72 | 999.3 |
| 20260505123635 | 16 | 199 | 4.8 | 0.0 | 0.00 | 0.00 | 0.00 | 73 | 998.8 |
| 20260505123135 | 16 | 219 | 6.4 | 0.0 | 0.00 | 0.00 | 0.00 | 73 | 998.8 |
| 20260505122634 | 16 | 237 | 3.2 | 0.0 | 0.00 | 0.00 | 0.00 | 73 | 999.0 |
| 20260505121633 | 16 | 236 | 6.4 | 0.0 | 0.00 | 0.00 | 0.00 | 74 | 999.0 |
| 20260505121133 | 16 | 198 | 4.8 | 0.0 | 0.00 | 0.00 | 0.00 | 74 | 999.2 |
| 20260505115632 | 15 | 199 | 4.8 | 0.0 | 0.00 | 0.00 | 0.00 | 75 | 999.1 |
| 20260505114131 | 15 | 213 | 14.5 | 0.0 | 0.00 | 0.00 | 0.00 | 75 | 999.0 |
| 20260505112130 | 15 | 206 | 6.4 | 0.0 | 0.00 | 0.00 | 0.00 | 75 | 999.1 |
| 20260505111630 | 15 | 192 | 1.6 | 0.0 | 0.00 | 0.00 | 0.00 | 76 | 999.0 |
| 20260505111130 | 15 | 243 | 4.8 | 0.0 | 0.00 | 0.00 | 0.00 | 76 | 998.8 |
| 20260505110629 | 15 | 198 | 3.2 | 0.0 | 0.00 | 0.00 | 0.00 | 76 | 998.5 |
| 20260505110129 | 15 | 254 | 3.2 | 0.0 | 0.00 | 0.00 | 0.00 | 76 | 998.4 |
| 20260505102127 | 15 | 200 | 6.4 | 0.0 | 0.00 | 0.00 | 0.00 | 75 | 998.0 |
| 20260505101626 | 15 | 154 | 4.8 | 0.0 | 0.00 | 0.00 | 0.00 | 75 | 998.1 |
| 20260505101126 | 15 | 192 | 11.3 | 0.0 | 0.00 | 0.00 | 0.00 | 75 | 998.0 |
| 20260505100626 | 15 | 148 | 4.8 | 0.0 | 0.00 | 0.00 | 0.00 | 75 | 997.8 |
| 20260505100126 | 15 | 188 | 8.0 | 0.0 | 0.00 | 0.00 | 0.00 | 75 | 997.8 |
| 20260505095625 | 15 | 165 | 8.0 | 0.0 | 0.00 | 0.00 | 0.00 | 75 | 997.9 |
| 20260505095125 | 15 | 180 | 6.4 | 0.0 | 0.00 | 0.00 | 0.00 | 75 | 997.9 |
| 20260505094625 | 15 | 230 | 4.8 | 0.0 | 0.00 | 0.00 | 0.00 | 75 | 997.9 |
| 20260505094124 | 15 | 173 | 4.8 | 0.0 | 0.00 | 0.00 | 0.00 | 75 | 997.9 |
| 20260505093624 | 15 | 199 | 12.9 | 0.0 | 0.00 | 0.00 | 0.00 | 75 | 997.9 |
| 20260505093124 | 15 | 182 | 9.7 | 0.0 | 0.00 | 0.00 | 0.00 | 74 | 997.9 |
| 20260505092624 | 15 | 195 | 4.8 | 0.0 | 0.00 | 0.00 | 0.00 | 74 | 997.9 |
| 20260505092123 | 15 | 204 | 4.8 | 0.0 | 0.00 | 0.00 | 0.00 | 74 | 997.8 |
| 20260505091623 | 15 | 200 | 12.9 | 0.0 | 0.00 | 0.00 | 0.00 | 74 | 997.7 |
| 20260505091123 | 15 | 192 | 8.0 | 0.0 | 0.00 | 0.00 | 0.00 | 74 | 997.8 |
| 20260505084121 | 16 | 184 | 4.8 | 0.0 | 0.00 | 0.00 | 0.00 | 73 | 997.8 |
| 20260505083621 | 16 | 223 | 14.5 | 0.0 | 0.00 | 0.00 | 0.00 | 73 | 997.8 |
| 20260505083120 | 16 | 202 | 6.4 | 0.0 | 0.00 | 0.00 | 0.00 | 73 | 997.8 |
| 20260505082620 | 16 | 244 | 6.4 | 0.0 | 0.00 | 0.00 | 0.00 | 73 | 997.9 |
| 20260505082120 | 16 | 159 | 6.4 | 0.0 | 0.00 | 0.00 | 0.00 | 73 | 997.9 |
| 20260505081620 | 16 | 225 | 4.8 | 0.0 | 0.00 | 0.00 | 0.00 | 72 | 998.1 |
| 20260505081119 | 16 | 223 | 6.4 | 0.0 | 0.00 | 0.00 | 0.00 | 72 | 998.2 |
| 20260505080619 | 16 | 261 | 19.3 | 0.0 | 0.00 | 0.00 | 0.00 | 72 | 998.2 |
| 20260505080119 | 16 | 198 | 4.8 | 0.0 | 0.00 | 0.00 | 0.00 | 72 | 998.2 |
| 20260505075619 | 16 | 206 | 6.4 | 0.0 | 0.00 | 0.00 | 0.00 | 73 | 998.2 |
| 20260505075118 | 16 | 154 | 3.2 | 0.0 | 0.00 | 0.00 | 0.00 | 73 | 998.3 |
| 20260505074618 | 16 | 203 | 8.0 | 0.0 | 0.00 | 0.00 | 0.00 | 73 | 998.3 |
| 20260505074118 | 16 | 192 | 8.0 | 0.0 | 0.00 | 0.00 | 0.00 | 73 | 998.3 |
| 20260505073617 | 16 | 188 | 8.0 | 0.0 | 0.00 | 0.00 | 0.00 | 74 | 998.3 |
| 20260505073117 | 16 | 223 | 11.3 | 0.0 | 0.00 | 0.00 | 0.00 | 74 | 998.1 |
| 20260505072617 | 15 | 204 | 3.2 | 0.0 | 0.00 | 0.00 | 0.00 | 73 | 998.0 |
| 20260505072117 | 15 | 213 | 8.0 | 0.0 | 0.00 | 0.00 | 0.00 | 74 | 998.0 |
| 20260505071116 | 15 | 185 | 8.0 | 0.0 | 0.00 | 0.00 | 0.00 | 74 | 998.0 |
| 20260505070616 | 15 | 186 | 4.8 | 0.0 | 0.00 | 0.00 | 0.00 | 74 | 998.1 |
| 20260505070115 | 15 | 174 | 8.0 | 0.0 | 0.00 | 0.00 | 0.00 | 73 | 998.1 |
| 20260505065615 | 15 | 178 | 4.8 | 0.0 | 0.00 | 0.00 | 0.00 | 73 | 998.2 |
| 20260505065115 | 15 | 180 | 4.8 | 0.0 | 0.00 | 0.00 | 0.00 | 73 | 998.3 |
| 20260505064114 | 15 | 195 | 8.0 | 0.0 | 0.00 | 0.00 | 0.00 | 73 | 998.4 |
| 20260505063614 | 15 | 169 | 3.2 | 0.0 | 0.00 | 0.00 | 0.00 | 73 | 998.4 |
| 20260505063114 | 15 | 161 | 3.2 | 0.0 | 0.00 | 0.00 | 0.00 | 73 | 998.4 |
| 20260505062613 | 15 | 202 | 3.2 | 0.0 | 0.00 | 0.00 | 0.00 | 73 | 998.4 |
| 20260505062113 | 15 | 175 | 12.9 | 0.0 | 0.00 | 0.00 | 0.00 | 73 | 998.5 |
| 20260505060612 | 15 | 180 | 6.4 | 0.0 | 0.00 | 0.00 | 0.00 | 73 | 998.8 |
| 20260505060112 | 15 | 181 | 9.7 | 0.0 | 0.00 | 0.00 | 0.00 | 73 | 998.8 |